This is the latest recevied weather packets stored in our database for station/object WI0K. If no packets are shown the sender has not sent any weather packets the latest 10 day(s).
| Time | Temp. | Humidity | Pressure | Rain* | Wind** | Luminosity | Snow |
|---|---|---|---|---|---|---|---|
| 1788411609 | 19.44° C | 62% | 1018.1 hPa | 0 mm | - | 0 W/m² | - |
| 1788411308 | 19.44° C | 61% | 1018.1 hPa | 0 mm | - | 0 W/m² | - |
| 1788411007 | 19.44° C | 60% | 1018.1 hPa | 0 mm | - | 0 W/m² | - |
| 1788410707 | 20° C | 59% | 1018.1 hPa | 0 mm | - | 0 W/m² | - |
| 1788410406 | 20° C | 57% | 1018.1 hPa | 0 mm | - | 0 W/m² | - |
| 1788410106 | 20° C | 58% | 1018.1 hPa | 0 mm | - | 0 W/m² | - |
| 1788409805 | 20° C | 56% | 1018.1 hPa | 0 mm | - | 0 W/m² | - |
| 1788409502 | 20.56° C | 55% | 1017.8 hPa | 0 mm | - | 0 W/m² | - |
| 1788409202 | 20.56° C | 54% | 1017.9 hPa | 0 mm | - | 0 W/m² | - |
| 1788408900 | 21.11° C | 53% | 1017.9 hPa | 0 mm | - | 0 W/m² | - |
| 1788408599 | 21.11° C | 51% | 1017.9 hPa | 0 mm | - | 0 W/m² | - |
| 1788408299 | 21.11° C | 51% | 1018.2 hPa | 0 mm | - | 0 W/m² | - |
| 1788407998 | 21.11° C | 50% | 1018.2 hPa | 0 mm | - | 0 W/m² | - |
| 1788407697 | 21.11° C | 51% | 1018.4 hPa | 0 mm | - | 0 W/m² | - |
| 1788407396 | 21.67° C | 51% | 1018.4 hPa | 0 mm | - | 0 W/m² | - |
| 1788407096 | 21.67° C | 49% | 1018.1 hPa | 0 mm | - | 0 W/m² | - |
| 1788406795 | 21.67° C | 49% | 1017.8 hPa | 0 mm | - | 0 W/m² | - |
| 1788406494 | 21.67° C | 48% | 1017.6 hPa | 0 mm | - | 0 W/m² | - |
| 1788406194 | 21.67° C | 50% | 1017.4 hPa | 0 mm | - | 0 W/m² | - |
| 1788405893 | 22.22° C | 50% | 1017.5 hPa | 0 mm | - | 0 W/m² | - |
| 1788405592 | 22.22° C | 49% | 1017.8 hPa | 0 mm | - | 0 W/m² | - |
| 1788405292 | 21.67° C | 48% | 1018.2 hPa | 0 mm | - | 0 W/m² | - |
| 1788404991 | 21.67° C | 51% | 1018.8 hPa | 0 mm | - | 0 W/m² | - |
| 1788404690 | 21.67° C | 50% | 1018.8 hPa | 0 mm | - | 0 W/m² | - |
| 1788404389 | 21.67° C | 50% | 1018.6 hPa | 0 mm | - | 0 W/m² | - |
* Rain latest hour (hover to see other rain measurements)
** Current wind speed in m/s (hover to see current wind gust speed)